TimeCST,TemperatureF,Dew PointF,Humidity,Sea Level PressureIn,VisibilityMPH,Wind Direction,Wind SpeedMPH,Gust SpeedMPH,PrecipitationIn,Events,Conditions,WindDirDegrees,DateUTC
12:15 AM,2.8,-5.6,68,30.43,10.0,South,10.4,-,N/A,,Clear,180,2014-01-24 06:15:00
12:35 AM,2.3,-5.8,69,30.43,10.0,SSW,8.1,-,N/A,,Clear,200,2014-01-24 06:35:00
1:15 AM,4.5,-4.9,65,30.37,10.0,South,11.5,-,N/A,,Clear,190,2014-01-24 07:15:00
1:55 AM,7.0,-3.8,61,30.33,10.0,SSW,15.0,-,N/A,,Clear,200,2014-01-24 07:55:00
2:15 AM,7.5,-3.6,60,30.31,10.0,SSW,15.0,-,N/A,,Clear,200,2014-01-24 08:15:00
2:35 AM,7.7,-3.6,60,30.30,10.0,SSW,11.5,-,N/A,,Clear,200,2014-01-24 08:35:00
2:55 AM,9.3,-3.5,56,30.28,10.0,SSW,13.8,-,N/A,,Clear,210,2014-01-24 08:55:00
3:15 AM,13.1,-3.3,48,30.26,10.0,SW,21.9,25.3,N/A,,Clear,230,2014-01-24 09:15:00
3:35 AM,14.0,-3.5,46,30.23,10.0,SW,23.0,32.2,N/A,,Clear,220,2014-01-24 09:35:00
3:55 AM,13.8,-2.7,48,30.22,10.0,SW,20.7,28.8,N/A,,Clear,220,2014-01-24 09:55:00
4:15 AM,13.8,-2.4,49,30.19,10.0,SW,20.7,28.8,N/A,,Clear,220,2014-01-24 10:15:00
4:35 AM,13.6,-1.8,50,30.17,10.0,SW,19.6,-,N/A,,Clear,220,2014-01-24 10:35:00
4:55 AM,14.2,-0.6,52,30.15,10.0,SW,18.4,24.2,N/A,,Clear,220,2014-01-24 10:55:00
5:15 AM,14.9,-0.0,52,30.13,10.0,SW,19.6,23.0,N/A,,Clear,220,2014-01-24 11:15:00
5:35 AM,15.8,0.9,52,30.12,10.0,SW,17.3,24.2,N/A,,Clear,220,2014-01-24 11:35:00
5:55 AM,16.3,1.0,51,30.10,10.0,SW,19.6,23.0,N/A,,Clear,220,2014-01-24 11:55:00
6:15 AM,16.3,1.4,52,30.08,10.0,SW,18.4,23.0,N/A,,Clear,220,2014-01-24 12:15:00
6:35 AM,16.7,1.9,52,30.06,10.0,SW,16.1,25.3,N/A,,Clear,220,2014-01-24 12:35:00
6:55 AM,16.9,2.5,53,30.04,10.0,SW,20.7,28.8,N/A,,Scattered Clouds,220,2014-01-24 12:55:00
7:15 AM,17.6,3.2,53,30.01,10.0,SW,23.0,32.2,N/A,,Mostly Cloudy,220,2014-01-24 13:15:00
7:35 AM,17.8,3.7,54,30.03,10.0,SW,17.3,26.5,N/A,,Scattered Clouds,230,2014-01-24 13:35:00
7:55 AM,17.8,4.6,57,30.01,10.0,SW,17.3,25.3,N/A,,Scattered Clouds,230,2014-01-24 13:55:00
8:15 AM,18.3,5.4,57,29.99,10.0,SW,23.0,28.8,N/A,,Mostly Cloudy,230,2014-01-24 14:15:00
8:35 AM,19.0,5.7,56,29.98,10.0,SW,23.0,28.8,N/A,,Overcast,230,2014-01-24 14:35:00
8:55 AM,19.9,7.0,57,29.97,10.0,SW,21.9,31.1,N/A,,Mostly Cloudy,230,2014-01-24 14:55:00
9:15 AM,20.7,7.0,56,29.98,10.0,WSW,23.0,31.1,N/A,,Overcast,240,2014-01-24 15:15:00
9:35 AM,21.2,7.3,55,29.97,10.0,WSW,21.9,32.2,N/A,,Overcast,240,2014-01-24 15:35:00
9:55 AM,21.7,7.9,55,29.96,10.0,WSW,25.3,29.9,N/A,,Overcast,240,2014-01-24 15:55:00
10:15 AM,23.2,9.9,57,29.95,10.0,WSW,24.2,31.1,N/A,,Overcast,240,2014-01-24 16:15:00
10:35 AM,23.5,9.9,56,29.92,10.0,WSW,23.0,28.8,N/A,,Overcast,240,2014-01-24 16:35:00
10:55 AM,25.2,10.4,54,29.92,10.0,WSW,24.2,32.2,N/A,,Overcast,240,2014-01-24 16:55:00
11:15 AM,26.2,10.8,52,29.91,10.0,WSW,24.2,-,N/A,,Overcast,240,2014-01-24 17:15:00
11:35 AM,27.5,12.2,53,29.89,10.0,WSW,21.9,27.6,N/A,,Overcast,240,2014-01-24 17:35:00
11:55 AM,28.8,12.0,50,29.87,10.0,WSW,24.2,28.8,N/A,,Overcast,240,2014-01-24 17:55:00
12:15 PM,30.7,12.9,48,29.86,10.0,WSW,26.5,32.2,N/A,,Overcast,250,2014-01-24 18:15:00
12:35 PM,31.1,12.9,47,29.84,10.0,WSW,24.2,29.9,N/A,,Overcast,250,2014-01-24 18:35:00
12:55 PM,31.8,13.3,46,29.82,10.0,WSW,21.9,27.6,N/A,,Overcast,240,2014-01-24 18:55:00
1:15 PM,33.1,14.5,47,29.81,10.0,WSW,23.0,27.6,N/A,,Overcast,240,2014-01-24 19:15:00
1:35 PM,34.3,14.7,45,29.80,10.0,WSW,21.9,28.8,N/A,,Overcast,250,2014-01-24 19:35:00
1:55 PM,34.0,14.5,45,29.79,10.0,WSW,24.2,28.8,N/A,,Overcast,240,2014-01-24 19:55:00
2:15 PM,34.7,14.5,44,29.77,10.0,WSW,19.6,-,N/A,,Overcast,250,2014-01-24 20:15:00
2:35 PM,35.6,16.3,46,29.76,10.0,WSW,17.3,-,N/A,,Overcast,240,2014-01-24 20:35:00
2:55 PM,35.8,16.0,45,29.75,10.0,WSW,18.4,-,N/A,,Mostly Cloudy,240,2014-01-24 20:55:00
3:15 PM,36.3,16.3,44,29.74,10.0,WSW,18.4,24.2,N/A,,Scattered Clouds,250,2014-01-24 21:15:00
3:35 PM,36.5,16.7,45,29.74,10.0,WSW,15.0,24.2,N/A,,Mostly Cloudy,250,2014-01-24 21:35:00
3:55 PM,36.7,17.1,45,29.73,10.0,WSW,12.7,-,N/A,,Mostly Cloudy,250,2014-01-24 21:55:00
4:15 PM,36.5,17.1,45,29.72,10.0,WSW,13.8,-,N/A,,Mostly Cloudy,240,2014-01-24 22:15:00
4:35 PM,36.0,17.8,48,29.70,10.0,WSW,13.8,-,N/A,,Mostly Cloudy,240,2014-01-24 22:35:00
4:55 PM,36.7,18.1,47,29.68,10.0,SW,13.8,-,N/A,,Overcast,230,2014-01-24 22:55:00
5:15 PM,37.0,18.9,48,29.69,10.0,WSW,13.8,-,N/A,,Overcast,240,2014-01-24 23:15:00
5:35 PM,37.2,19.4,49,29.67,10.0,SW,13.8,-,N/A,,Overcast,230,2014-01-24 23:35:00
5:55 PM,37.0,20.1,50,29.66,10.0,SW,12.7,-,N/A,,Overcast,230,2014-01-24 23:55:00
6:15 PM,37.6,19.9,49,29.66,10.0,SW,15.0,-,N/A,,Overcast,230,2014-01-25 00:15:00
6:35 PM,37.8,20.1,49,29.66,10.0,WSW,12.7,-,N/A,,Overcast,240,2014-01-25 00:35:00
6:55 PM,37.9,20.8,50,29.65,10.0,WSW,12.7,-,N/A,,Overcast,240,2014-01-25 00:55:00
7:15 PM,39.0,22.8,52,29.65,10.0,WSW,10.4,-,N/A,,Overcast,250,2014-01-25 01:15:00
7:35 PM,39.2,24.1,55,29.64,10.0,West,11.5,-,N/A,,Overcast,260,2014-01-25 01:35:00
7:55 PM,39.2,24.4,56,29.63,10.0,West,12.7,-,N/A,,Overcast,260,2014-01-25 01:55:00
8:15 PM,40.6,28.0,61,29.62,10.0,West,16.1,-,N/A,,Overcast,280,2014-01-25 02:15:00
8:35 PM,40.3,30.0,67,29.61,10.0,West,11.5,-,N/A,,Overcast,280,2014-01-25 02:35:00
8:55 PM,41.7,31.1,66,29.61,10.0,West,15.0,24.2,N/A,,Overcast,280,2014-01-25 02:55:00
9:15 PM,43.0,32.0,65,29.60,10.0,WNW,16.1,24.2,N/A,,Overcast,300,2014-01-25 03:15:00
9:35 PM,43.0,32.0,65,29.60,10.0,NW,15.0,25.3,N/A,,Overcast,310,2014-01-25 03:35:00
9:55 PM,42.4,32.2,67,29.61,10.0,NW,12.7,-,N/A,,Overcast,310,2014-01-25 03:55:00
10:15 PM,41.9,32.7,70,29.61,10.0,NW,17.3,23.0,N/A,,Overcast,310,2014-01-25 04:15:00
10:35 PM,41.9,32.9,70,29.62,10.0,NW,18.4,24.2,N/A,,Overcast,320,2014-01-25 04:35:00
10:55 PM,41.4,32.9,72,29.63,10.0,NW,16.1,23.0,N/A,,Overcast,320,2014-01-25 04:55:00
11:15 PM,41.0,32.2,71,29.65,10.0,NW,19.6,27.6,N/A,,Overcast,320,2014-01-25 05:15:00
11:35 PM,39.4,32.9,78,29.65,10.0,NNW,20.7,28.8,N/A,,Light Drizzle,330,2014-01-25 05:35:00